Location: Kawakawa
(35.3830°S, 174.0670°E)
Time: 04:59:37
(UTC+13:00)

Cosmos 2219 Rocket - Pass Details

Date: 24 January 2019
Orbit: 829 x 845 km, 71.0° (Epoch: 16 October)

Event Time Altitude Azimuth Distance (km) Brightness Sun altitude
Exits shadow 23:29:30 53° 121° (ESE) 1,042 2.5 -27.7°
Drops below altitude 10° 23:34:04 10° 152° (SSE) 2,492 5.0 -28.2°
Sets 23:36:31 0° 155° (SSE) 3,420 5.8 -28.5°
